| time (UTC) | temp F | wind direction | speed MPH | gust MPH | rain 1hr in | rain 24hr in | rain mn in | humidity % | barometer mb |
| 20260504004518 | 59 | 92 | 2.0 | 4.0 | 0.00 | 0.01 | 0.01 | 79 | 1034.2 |
| 20260504003537 | 58 | 86 | 0.0 | 2.0 | 0.00 | 0.01 | 0.01 | 80 | 1034.3 |
| 20260504002516 | 58 | 143 | 1.0 | 3.0 | 0.00 | 0.01 | 0.01 | 80 | 1034.2 |
| 20260504001518 | 58 | 77 | 1.0 | 3.0 | 0.00 | 0.01 | 0.01 | 80 | 1034.4 |
| 20260504000517 | 57 | 113 | 1.0 | 6.0 | 0.00 | 0.01 | 0.01 | 81 | 1034.6 |
| 20260503235517 | 56 | 111 | 2.0 | 4.0 | 0.00 | 0.01 | 0.01 | 81 | 1034.6 |
| 20260503234516 | 56 | 107 | 2.0 | 4.0 | 0.00 | 0.01 | 0.01 | 81 | 1034.6 |
| 20260503233518 | 55 | 93 | 1.0 | 3.0 | 0.00 | 0.01 | 0.01 | 82 | 1034.8 |
| 20260503232517 | 55 | 105 | 1.0 | 3.0 | 0.00 | 0.01 | 0.01 | 83 | 1035.0 |
| 20260503231536 | 54 | 71 | 1.0 | 3.0 | 0.00 | 0.01 | 0.01 | 84 | 1035.1 |
| 20260503230518 | 53 | 133 | 1.0 | 4.0 | 0.00 | 0.01 | 0.01 | 86 | 1035.1 |
| 20260503225517 | 51 | 118 | 1.0 | 3.0 | 0.00 | 0.01 | 0.01 | 88 | 1035.1 |
| 20260503224517 | 51 | 144 | 1.0 | 4.0 | 0.00 | 0.01 | 0.01 | 88 | 1035.0 |
| 20260503223516 | 50 | 110 | 1.0 | 3.0 | 0.00 | 0.01 | 0.01 | 89 | 1034.9 |
| 20260503222518 | 50 | 100 | 1.0 | 4.0 | 0.00 | 0.01 | 0.01 | 89 | 1034.9 |
| 20260503221517 | 49 | 101 | 1.0 | 3.0 | 0.00 | 0.01 | 0.01 | 91 | 1035.0 |
| 20260503220516 | 49 | 99 | 1.0 | 3.0 | 0.00 | 0.01 | 0.01 | 91 | 1035.0 |
| 20260503215538 | 48 | 86 | 1.0 | 3.0 | 0.00 | 0.01 | 0.01 | 92 | 1035.0 |
| 20260503214517 | 47 | 108 | 1.0 | 3.0 | 0.00 | 0.01 | 0.01 | 92 | 1035.1 |
| 20260503213517 | 47 | 98 | 1.0 | 2.0 | 0.00 | 0.01 | 0.01 | 93 | 1035.2 |
| 20260503212516 | 47 | 151 | 1.0 | 2.0 | 0.00 | 0.01 | 0.01 | 94 | 1035.2 |
| 20260503211538 | 46 | 112 | 0.0 | 1.0 | 0.00 | 0.01 | 0.01 | 95 | 1035.3 |
| 20260503210517 | 46 | 121 | 0.0 | 2.0 | 0.00 | 0.01 | 0.01 | 96 | 1035.3 |
| 20260503205517 | 46 | 156 | 0.0 | 2.0 | 0.00 | 0.01 | 0.01 | 96 | 1035.4 |
| 20260503204518 | 46 | 155 | 0.0 | 1.0 | 0.00 | 0.01 | 0.01 | 97 | 1035.3 |
| 20260503203517 | 45 | 82 | 0.0 | 2.0 | 0.00 | 0.01 | 0.01 | 98 | 1035.2 |
| 20260503202517 | 44 | 52 | 0.0 | 2.0 | 0.00 | 0.01 | 0.01 | 98 | 1035.2 |
| 20260503201517 | 44 | 0.0 | 0.0 | 0.00 | 0.01 | 0.01 | 98 | 1035.2 | |
| 20260503200538 | 43 | 0.0 | 0.0 | 0.00 | 0.01 | 0.01 | 98 | 1035.0 | |
| 20260503195517 | 41 | 0.0 | 1.0 | 0.00 | 0.01 | 0.01 | 98 | 1034.9 | |
| 20260503194517 | 41 | 337 | 0.0 | 1.0 | 0.00 | 0.01 | 0.01 | 98 | 1034.8 |
| 20260503193516 | 41 | 323 | 0.0 | 1.0 | 0.00 | 0.01 | 0.01 | 98 | 1034.6 |
| 20260503192518 | 40 | 325 | 0.0 | 1.0 | 0.00 | 0.01 | 0.01 | 98 | 1034.6 |
| 20260503191518 | 40 | 318 | 0.0 | 2.0 | 0.00 | 0.01 | 0.01 | 98 | 1034.6 |
| 20260503190517 | 40 | 0.0 | 0.0 | 0.00 | 0.01 | 0.01 | 98 | 1034.6 | |
| 20260503185516 | 40 | 128 | 0.0 | 1.0 | 0.00 | 0.01 | 0.01 | 98 | 1034.6 |
| 20260503184517 | 40 | 183 | 0.0 | 1.0 | 0.00 | 0.01 | 0.01 | 98 | 1034.5 |
| 20260503183517 | 40 | 304 | 0.0 | 1.0 | 0.00 | 0.01 | 0.01 | 98 | 1034.5 |
| 20260503182516 | 40 | 333 | 0.0 | 1.0 | 0.00 | 0.01 | 0.01 | 97 | 1034.4 |
| 20260503181518 | 40 | 231 | 0.0 | 1.0 | 0.00 | 0.01 | 0.01 | 97 | 1034.5 |
| 20260503180517 | 40 | 227 | 0.0 | 1.0 | 0.00 | 0.01 | 0.01 | 97 | 1034.5 |
| 20260503175516 | 41 | 218 | 0.0 | 1.0 | 0.00 | 0.01 | 0.01 | 97 | 1034.4 |
| 20260503174518 | 41 | 142 | 0.0 | 1.0 | 0.00 | 0.01 | 0.01 | 97 | 1034.6 |
| 20260503173537 | 42 | 0.0 | 1.0 | 0.00 | 0.01 | 0.01 | 97 | 1034.5 | |
| 20260503172517 | 42 | 135 | 0.0 | 1.0 | 0.00 | 0.01 | 0.01 | 97 | 1034.6 |
| 20260503171516 | 42 | 253 | 0.0 | 1.0 | 0.00 | 0.01 | 0.01 | 97 | 1034.4 |
| 20260503170538 | 42 | 261 | 0.0 | 2.0 | 0.00 | 0.01 | 0.01 | 97 | 1034.5 |
| 20260503150516 | 42 | 213 | 0.0 | 1.0 | 0.00 | 0.01 | 0.01 | 97 | 1034.9 |
| 20260503130517 | 45 | 272 | 0.0 | 1.0 | 0.01 | 0.01 | 0.01 | 96 | 1034.8 |
| 20260503110518 | 48 | 287 | 1.0 | 2.0 | 0.00 | 0.00 | 0.00 | 93 | 1034.8 |
| 20260503081516 | 51 | 294 | 0.0 | 1.0 | 0.00 | 0.00 | 0.00 | 86 | 1034.1 |
| 20260503080517 | 52 | 293 | 1.0 | 3.0 | 0.00 | 0.00 | 0.00 | 85 | 1034.2 |
| 20260503072518 | 52 | 290 | 1.0 | 7.0 | 0.00 | 0.00 | 0.00 | 86 | 1034.0 |
| 20260503071518 | 52 | 288 | 1.0 | 5.0 | 0.00 | 0.00 | 0.00 | 86 | 1033.9 |
| 20260503070537 | 52 | 282 | 1.0 | 4.0 | 0.00 | 0.00 | 0.00 | 86 | 1033.9 |
| 20260503054516 | 54 | 252 | 1.0 | 5.0 | 0.00 | 0.00 | 0.00 | 84 | 1033.5 |
| 20260503053518 | 54 | 258 | 1.0 | 6.0 | 0.00 | 0.00 | 0.00 | 84 | 1033.3 |
| 20260503052517 | 54 | 263 | 1.0 | 3.0 | 0.00 | 0.00 | 0.00 | 84 | 1033.2 |
| 20260503051516 | 55 | 300 | 1.0 | 4.0 | 0.00 | 0.00 | 0.00 | 85 | 1033.3 |
| 20260503050516 | 55 | 288 | 1.0 | 2.0 | 0.00 | 0.00 | 0.00 | 85 | 1033.2 |
| 20260503045518 | 55 | 294 | 1.0 | 2.0 | 0.00 | 0.00 | 0.00 | 85 | 1033.2 |
| 20260503044658 | 55 | 277 | 1.0 | 4.0 | 0.00 | 0.00 | 0.00 | 85 | 1033.2 |
| 20260503043517 | 54 | 301 | 1.0 | 3.0 | 0.00 | 0.00 | 0.00 | 86 | 1033.2 |
| 20260503042518 | 55 | 311 | 1.0 | 2.0 | 0.00 | 0.00 | 0.00 | 88 | 1033.2 |
| 20260503041538 | 55 | 311 | 1.0 | 1.0 | 0.00 | 0.00 | 0.00 | 89 | 1033.2 |
| 20260503040517 | 55 | 311 | 1.0 | 1.0 | 0.00 | 0.00 | 0.00 | 89 | 1033.2 |
| 20260503035516 | 56 | 311 | 1.0 | 1.0 | 0.00 | 0.00 | 0.00 | 89 | 1033.2 |
| 20260503034518 | 56 | 311 | 1.0 | 1.0 | 0.00 | 0.00 | 0.00 | 88 | 1033.2 |
| 20260503033517 | 56 | 311 | 1.0 | 1.0 | 0.00 | 0.00 | 0.00 | 88 | 1033.4 |
| 20260503032517 | 56 | 312 | 1.0 | 1.0 | 0.00 | 0.00 | 0.00 | 86 | 1033.4 |
| 20260503031517 | 57 | 312 | 0.0 | 1.0 | 0.00 | 0.00 | 0.00 | 85 | 1033.5 |
| 20260503030518 | 57 | 312 | 0.0 | 1.0 | 0.00 | 0.00 | 0.00 | 85 | 1033.5 |
| 20260503025637 | 56 | 314 | 0.0 | 1.0 | 0.00 | 0.00 | 0.00 | 84 | 1033.5 |
| 20260503024517 | 56 | 94 | 0.0 | 1.0 | 0.00 | 0.00 | 0.00 | 83 | 1033.5 |
| 20260503023516 | 56 | 101 | 0.0 | 1.0 | 0.00 | 0.00 | 0.00 | 83 | 1033.6 |
| 20260503022538 | 57 | 115 | 0.0 | 1.0 | 0.00 | 0.00 | 0.00 | 83 | 1033.6 |
| 20260503021517 | 57 | 0.0 | 1.0 | 0.00 | 0.00 | 0.00 | 82 | 1033.7 | |
| 20260503020537 | 57 | 52 | 0.0 | 1.0 | 0.00 | 0.00 | 0.00 | 80 | 1033.7 |
| 20260503015518 | 58 | 77 | 1.0 | 4.0 | 0.00 | 0.00 | 0.00 | 79 | 1033.7 |
| 20260503014517 | 58 | 169 | 0.0 | 2.0 | 0.00 | 0.00 | 0.00 | 79 | 1033.8 |
| 20260503013517 | 58 | 102 | 1.0 | 3.0 | 0.00 | 0.00 | 0.00 | 78 | 1034.0 |
| 20260503012516 | 59 | 78 | 0.0 | 2.0 | 0.00 | 0.00 | 0.00 | 78 | 1034.2 |
| 20260503011518 | 59 | 72 | 1.0 | 2.0 | 0.00 | 0.00 | 0.00 | 78 | 1034.4 |
| 20260503010517 | 59 | 104 | 0.0 | 3.0 | 0.00 | 0.00 | 0.00 | 78 | 1034.6 |
| 20260503005517 | 58 | 136 | 0.0 | 1.0 | 0.00 | 0.00 | 0.00 | 80 | 1034.7 |